Regional Weather Roundup
Issued by NWS State College, PA

Home | Current Version | Previous Version | Text Only | Print | Product List | Glossary On
Versions: 1 2 3 4 5 6 7 8 9 10 11 12 13 14 15 16 17 18 19 20 21 22 23 24 25 26 27 28 29 30 31 32 33 34 35 36 37 38 39 40 41 42 43 44 45 46 47 48 49 50
000
ASUS41 KCTP 031610
RWRCTP

REGIONAL WEATHER ROUNDUP
NATIONAL WEATHER SERVICE STATE COLLEGE PA
1200 PM EDT THU SEP 03 2015

Note: "fair" indicates few or no clouds below 12,000 feet with no
significant weather and/or obstructions to visibility.

* = STATION THAT DOES NOT REPORT PRECIPITATION /E.G. RAIN...SNOW...ETC/
    THUNDER OR FOG.

PAZ002>004-007>009-013>016-020>023-029>032-031700-
WESTERN PENNSYLVANIA

CITY           SKY/WX    TMP DP  RH WIND       PRES   REMARKS
ERIE           SUNNY     81  69  67 W9        29.97S
MEADVILLE      PTSUNNY   81  70  69 VRB3      30.01F
FRANKLIN*      SUNNY     81  70  69 CALM      30.02F
NEW CASTLE     FAIR      83  72  69 CALM      30.01F
BEAVER COUNTY  MOSUNNY   82  68  61 W6        30.01F
BUTLER*        MOSUNNY   82  70  65 SW9       30.02S
PITTSBURGH INT PTSUNNY   83  67  58 MISG      30.01S
PITTSBURGH     MOSUNNY   79  64  60 SW5       30.00F
INDIANA*       MOSUNNY   79  68  69 VRB3      30.04F
LATROBE        PTSUNNY   81  68  65 CALM      30.01F
WASHINGTON CO* SUNNY     81  68  65 CALM      30.02F
$$

PAZ004>006-010>012-017>019-024>028-033>037-041-042-045-046-049>053-031700-
CENTRAL PENNSYLVANIA

CITY           SKY/WX    TMP DP  RH WIND       PRES   REMARKS
BRADFORD       PTSUNNY   78  66  66 NW6       30.04S
DUBOIS         MOSUNNY   80  67  64 VRB5      30.01F HAZE
CLEARFIELD     PTSUNNY   82  65  56 NW6       30.01F
JOHNSTOWN      CLOUDY    76  65  68 W5        30.05F
ALTOONA        MOSUNNY   83  67  58 NW6       30.01F
STATE COLLEGE  SUNNY     82  68  61 CALM      29.99F
WILLIAMSPORT   SUNNY     84  67  56 W5        29.93F
SELINSGROVE    SUNNY     85  67  54 CALM      29.94F
FT INDIANTOWN  SUNNY     87  67  51 VRB7      29.92F
CAPITAL CITY   SUNNY     87  65  47 NW6       29.92F
HARRISBURG     SUNNY     88  66  48 NW8       29.91F
YORK           SUNNY     86  69  56 VRB3      29.93F
$$

PAZ038>040-043-044-047-048-054-055-060>062-067>071-031700-
EASTERN PENNSYLVANIA

CITY           SKY/WX    TMP DP  RH WIND       PRES   REMARKS
SCRANTON       SUNNY     82  68  62 CALM      29.95F
MOUNT POCONO   MOSUNNY   80  66  62 NE8       29.99F
ALLENTOWN      SUNNY     88  68  51 NE10G16   29.91F
QUAKERTOWN*    SUNNY     86  68  54 N7        29.92F
READING        MOSUNNY   87  66  49 N9        29.91F
LANCASTER      SUNNY     86  68  54 NE8       29.92F
COATESVILLE    MOSUNNY   86  68  54 N8        29.94S
POTTSTOWN      SUNNY     87  67  51 N9        29.92F
BLUE BELL      SUNNY     88  70  55 NE5       29.89F
DOYLESTOWN     SUNNY     86  67  52 N8        29.90F
WILLOW GROVE   NOT AVBL
NORTH PHILA    SUNNY     90  64  42 N9        29.90F
PHILADELPHIA   MOSUNNY   89  65  44 NW13      29.89F
$$



USA.gov is the U.S. government's official web portal to all federal, state and local government web resources and services.